Theta_e
312 310 308 309 309 309 309 310 309 309 310 310 309 311 313 313 309 309 315 316 312 310 311 311 309 308 307 306 305 307 308 308 309 309 308 308 308 308 308 308 308 308 308 308 308 308 308 307 307 307 307 307 307 308 308 309 311 314 316 319 322 323 324 324 323 323 322 321 321 321 321 320 321 321 315 312 312 312 311 310 309 308 305 303 303 302 302
311 310 309 309 308 308 308 307 308 308 310 311 310 311 313 311 309 311 312 310 310 308 308 310 308 303 303 305 308 309 308 309 309 308 308 308 308 308 308 308 308 308 308 308 308 308 308 308 308 308 307 308 307 307 308 308 309 310 311 313 316 319 322 324 324 324 323 323 322 322 323 321 321 320 316 313 313 312 310 310 308 306 304 303 303 302 302
311 312 311 308 306 307 307 306 307 307 309 310 309 308 310 307 308 311 308 306 309 308 303 303 304 304 306 308 308 308 308 308 308 307 308 308 308 308 308 307 307 307 307 308 307 308 308 307 308 308 307 307 307 307 307 308 308 308 308 309 310 312 316 318 321 323 323 323 323 322 321 319 317 317 316 314 313 311 310 309 307 305 304 304 303 302 302
309 311 310 308 308 308 306 305 306 307 309 311 310 308 309 309 308 309 305 305 312 310 303 302 305 306 307 307 307 308 308 307 307 307 307 307 307 307 307 307 307 307 307 307 307 307 307 307 307 307 307 307 307 306 306 306 307 307 307 307 307 307 309 310 314 318 320 321 322 321 319 318 316 315 314 313 312 311 309 307 305 305 304 303 303 302 303
307 310 307 307 308 307 307 309 309 307 308 309 307 306 309 310 308 308 307 310 314 311 306 308 310 307 306 307 307 307 307 307 307 307 306 306 306 306 306 306 306 306 306 307 307 307 307 307 307 306 306 306 306 306 306 306 306 305 305 305 305 305 306 307 308 312 317 320 321 321 319 317 317 315 313 312 312 310 308 306 305 305 304 303 303 303 304
308 310 307 307 307 306 309 313 312 309 310 310 306 307 312 312 308 309 310 311 312 309 308 312 311 308 307 305 304 305 306 307 306 305 304 304 303 303 303 303 303 304 304 304 305 305 305 305 306 305 305 305 306 306 306 306 305 304 304 304 304 304 305 307 307 308 312 318 320 320 318 317 316 315 313 312 311 309 307 306 306 305 304 304 304 304 304
306 307 306 306 306 305 306 310 309 308 310 311 309 310 315 313 309 309 310 309 309 307 307 307 306 305 305 302 303 305 306 305 304 303 302 302 301 301 301 301 302 303 303 303 304 303 304 303 304 304 304 304 304 305 304 304 304 304 303 303 304 304 305 306 308 309 311 317 320 319 317 317 315 314 312 311 309 307 305 305 305 304 304 305 305 304 304
305 304 305 306 305 304 305 308 307 306 306 307 306 308 311 310 308 310 311 310 307 305 304 305 305 305 304 302 303 306 306 303 302 302 302 302 302 301 301 302 303 303 303 303 303 304 303 303 303 303 303 303 303 303 303 303 304 303 303 304 304 305 305 306 309 311 312 316 319 318 317 317 315 313 312 310 308 306 304 304 304 305 305 305 304 304 303
304 305 307 306 304 304 305 305 304 304 305 304 303 305 307 307 305 307 309 311 308 304 304 305 305 303 302 301 303 305 304 303 302 303 303 303 302 302 302 303 303 303 304 304 304 303 303 303 303 302 302 302 302 302 303 303 303 303 303 304 304 305 306 307 308 311 313 315 318 318 317 316 313 311 310 309 307 305 304 304 305 305 305 304 304 303 301
303 304 305 305 304 306 306 304 303 303 303 302 301 303 306 306 304 304 307 311 308 304 303 304 304 303 302 303 304 303 302 303 303 303 303 302 302 302 302 302 303 304 304 304 303 303 302 302 302 302 302 302 302 302 303 303 304 304 304 304 305 307 308 308 309 311 313 315 317 317 316 314 311 310 309 308 306 305 305 305 305 305 304 303 302 299 298
303 303 304 304 304 305 306 305 304 303 301 301 303 307 307 304 302 302 304 305 304 302 303 303 303 304 304 305 304 302 302 303 303 303 302 302 301 301 301 302 302 303 303 303 303 302 301 301 302 302 302 303 304 304 305 305 306 306 306 306 308 309 310 310 311 312 314 315 316 315 314 312 311 310 308 306 306 306 305 305 304 303 302 300 298 297 296
305 304 304 304 304 304 305 306 304 302 301 303 307 309 307 303 301 301 302 302 302 303 303 303 304 306 306 304 303 302 302 303 302 303 302 301 301 301 300 301 302 303 303 303 302 302 301 302 303 304 305 305 306 306 306 306 307 307 307 308 309 310 311 311 312 313 314 314 314 314 312 311 309 308 305 305 305 305 304 304 302 300 298 297 296 296 296
304 303 303 304 304 304 305 305 303 301 302 305 307 307 305 301 300 301 301 302 302 303 303 303 304 305 304 302 302 302 303 303 303 302 302 301 301 301 301 302 302 303 303 303 303 302 302 303 304 305 305 305 306 306 306 306 306 306 307 308 309 310 311 312 313 314 314 313 312 311 310 308 306 305 304 305 304 303 302 300 298 296 296 295 295 295 295
303 304 304 304 304 304 302 303 303 301 302 305 306 304 302 300 301 302 302 302 303 303 303 303 303 303 302 303 303 302 303 303 303 302 302 302 301 301 301 303 303 303 303 303 302 302 303 304 305 305 305 305 306 306 306 306 306 306 307 309 309 310 311 312 313 313 312 311 309 307 306 305 305 305 304 303 302 300 298 296 295 295 295 295 295 294 294
302 303 303 303 304 303 300 301 302 302 302 303 303 301 301 301 302 303 303 303 303 303 303 303 303 303 303 303 302 302 303 303 302 302 303 302 301 301 302 303 303 303 303 302 302 303 304 304 305 305 305 305 306 306 306 306 306 306 308 309 309 311 312 312 312 311 310 308 306 305 304 303 303 302 300 299 297 296 295 295 295 295 295 295 295 294 292
301 302 303 303 303 300 299 301 302 302 301 300 300 301 301 301 301 301 301 301 301 301 302 302 302 303 302 302 302 302 302 302 302 303 302 302 302 302 303 303 303 303 302 302 302 303 304 304 304 305 305 305 305 305 306 306 306 307 308 309 310 311 311 310 309 307 306 304 303 303 302 301 299 299 298 297 296 296 296 295 295 296 296 296 294 292 291
300 301 303 303 300 298 298 300 300 300 299 300 300 301 300 300 299 300 300 300 300 300 300 301 302 302 302 301 301 301 300 300 301 302 302 302 302 303 303 303 303 302 302 302 302 304 305 305 305 305 305 305 305 305 306 306 307 308 308 309 310 310 309 307 306 304 302 302 301 301 299 299 298 298 298 298 297 297 296 296 296 296 296 295 293 291 291
299 298 299 298 297 298 298 298 297 298 299 300 300 299 299 299 299 299 299 299 300 300 300 301 301 302 301 301 300 300 300 301 301 302 302 302 302 303 303 303 302 302 303 303 303 304 305 304 304 305 305 305 305 305 305 306 306 307 308 309 309 308 306 305 303 302 301 300 299 298 298 299 299 298 298 298 298 298 297 296 296 296 295 293 292 291 291
299 299 300 298 297 298 297 297 298 298 298 299 299 298 299 299 299 299 299 299 299 299 300 301 302 302 301 301 300 300 301 302 302 302 302 302 303 303 303 302 302 303 303 303 304 304 304 304 305 305 306 305 304 304 304 305 305 306 307 307 306 305 303 302 300 300 299 298 298 298 299 299 299 298 298 298 298 297 296 295 295 294 293 292 291 292 291
298 299 299 297 297 297 297 297 298 297 297 298 298 298 298 299 299 299 299 299 299 299 299 300 301 302 301 301 301 301 302 303 303 302 302 303 303 303 303 302 302 303 303 304 304 304 304 304 304 305 304 304 303 303 303 303 304 304 304 304 303 302 301 300 300 299 298 298 299 299 299 299 299 298 298 298 297 295 294 294 293 292 291 292 292 292 291
297 297 297 296 297 297 297 297 297 297 297 297 298 298 298 298 299 299 299 299 299 299 299 300 301 301 301 301 301 301 302 302 303 303 303 303 303 303 303 302 302 303 303 304 304 304 304 304 304 304 303 302 302 302 302 302 302 303 302 301 301 300 299 299 299 298 299 299 299 299 299 299 298 298 298 296 294 293 292 292 292 292 292 291 291 291 291
297 297 296 296 297 297 297 297 297 297 297 297 298 298 298 298 298 298 298 299 299 299 300 301 301 301 301 301 301 301 301 302 302 303 303 303 303 303 302 302 302 303 303 303 304 304 304 304 304 303 302 302 302 302 302 302 301 301 301 300 300 299 299 298 299 299 299 299 299 299 299 298 298 298 296 294 293 293 293 293 293 293 293 292 292 292 292
297 296 296 296 296 296 297 297 297 297 296 296 297 298 298 298 298 298 299 299 299 300 300 301 301 301 301 301 301 301 301 302 302 303 303 303 303 302 302 302 303 303 303 303 303 303 304 304 304 303 302 302 303 302 302 301 300 300 300 300 299 299 299 299 299 300 299 299 299 299 298 298 298 296 295 294 295 295 295 295 294 294 294 293 293 293 293
296 296 297 297 296 296 297 297 297 296 296 297 297 298 298 298 298 299 299 299 299 300 300 300 301 301 301 301 301 301 301 302 303 303 303 303 302 302 302 303 303 303 303 303 303 304 304 304 304 303 302 302 302 302 301 300 300 300 300 299 299 299 299 299 299 299 299 299 299 299 299 298 297 296 295 295 296 296 296 295 295 294 294 294 294 293 293
296 296 296 296 297 296 296 296 297 296 297 297 298 298 298 298 299 299 299 299 300 300 301 301 301 302 302 302 301 301 302 302 303 303 303 302 302 302 303 303 304 303 303 303 304 304 304 304 303 303 302 301 302 301 301 301 300 300 299 299 299 299 299 299 299 299 299 299 299 299 299 298 297 295 295 296 296 296 296 295 295 295 294 294 294 294 293
296 296 296 296 296 296 296 296 296 297 298 298 298 298 299 299 299 299 299 300 300 301 301 301 301 302 302 302 302 302 302 302 302 302 302 302 302 303 303 303 303 303 303 304 304 304 303 303 303 302 301 301 301 302 301 300 300 299 300 300 300 299 299 299 299 299 300 300 300 299 299 298 297 296 295 296 296 296 296 296 295 295 295 294 294 294 293
296 297 296 295 295 296 297 297 297 298 298 298 298 299 299 299 299 300 300 300 300 301 301 301 302 302 302 302 302 302 302 301 301 301 301 302 302 303 303 303 303 303 303 304 304 303 303 303 302 302 301 301 301 301 301 300 299 300 300 300 300 300 300 300 300 300 300 300 300 299 299 298 297 296 296 296 296 296 296 295 295 296 295 294 294 294 293
297 297 297 296 296 297 298 298 298 298 298 298 299 299 299 300 300 300 300 300 300 301 301 302 302 302 302 301 301 301 301 301 301 301 301 302 302 302 302 303 302 303 303 303 303 303 303 303 302 302 302 301 301 301 300 300 300 300 300 300 300 300 300 300 300 300 300 300 300 300 299 297 296 296 296 296 296 296 296 295 295 295 295 295 294 294 293
297 296 297 297 297 298 298 299 299 299 299 299 299 299 299 299 299 300 300 300 300 300 300 301 302 302 302 301 300 300 301 301 301 301 301 301 301 302 302 302 302 302 302 302 303 303 303 302 302 302 302 301 301 301 300 300 300 300 300 300 301 300 300 300 300 300 300 301 300 300 298 297 296 296 296 296 296 296 296 296 295 295 295 295 294 294 293
296 296 296 296 297 298 299 299 299 299 299 299 299 299 299 299 299 299 299 299 299 299 300 301 302 301 301 300 300 300 300 300 300 300 300 300 300 300 300 301 301 301 301 302 303 303 303 302 302 302 302 301 301 300 300 300 300 301 301 301 300 300 300 300 300 300 301 301 300 299 297 296 296 297 296 296 296 296 296 296 296 296 296 295 294 294 293
296 296 296 296 297 298 298 298 298 298 299 298 298 299 298 298 298 298 298 298 298 299 300 301 301 300 300 300 300 299 299 299 300 300 300 300 300 300 299 300 301 301 301 301 302 302 302 302 302 302 302 301 300 300 300 301 301 300 300 300 300 300 300 300 301 301 301 301 300 298 296 296 297 296 296 296 296 296 296 296 296 296 296 295 295 294 293
297 298 297 297 297 298 298 298 298 297 298 297 297 297 297 298 298 298 298 299 300 300 300 301 300 300 300 299 298 298 298 298 298 299 299 299 299 299 300 300 300 300 300 301 301 301 301 301 301 301 301 300 300 300 301 301 300 300 300 300 300 300 301 301 301 301 301 300 299 298 297 297 297 297 297 296 296 296 296 296 296 296 296 295 295 294 294
296 296 297 296 296 297 297 296 296 296 296 297 297 298 298 299 300 299 299 300 301 300 300 300 299 299 298 297 297 297 297 297 297 298 298 299 299 300 300 300 300 301 301 301 301 301 301 301 301 301 300 300 301 301 300 300 300 300 300 301 301 301 301 301 300 300 300 299 298 298 297 297 296 297 297 296 296 297 297 297 297 296 296 295 295 295 294
293 294 294 294 294 294 294 294 294 295 296 297 298 298 299 300 300 299 300 300 300 299 299 299 298 297 296 296 296 296 296 297 297 297 298 299 299 300 300 301 301 301 301 301 301 301 301 301 301 301 301 301 301 301 301 301 301 301 301 301 301 301 301 300 300 300 299 299 298 297 297 297 297 297 297 297 297 297 297 297 297 296 296 296 295 295 294
293 293 293 294 294 294 294 294 295 296 296 297 297 298 298 299 299 299 299 298 298 297 298 297 296 296 295 295 295 295 295 296 296 296 297 298 298 299 300 301 301 301 301 301 301 301 301 301 301 301 301 302 301 301 301 301 301 301 301 301 301 301 301 301 300 299 299 298 298 297 297 297 297 297 297 298 297 297 297 297 297 296 297 296 296 295 294
293 294 294 294 295 295 295 295 296 296 296 297 297 297 297 297 297 297 297 296 295 295 295 295 295 295 295 295 294 294 295 295 296 296 297 297 297 299 300 300 300 301 301 301 301 301 301 301 301 301 302 302 302 302 301 301 300 300 300 300 301 301 301 301 300 299 298 298 298 297 297 297 297 298 298 297 297 297 297 297 297 297 297 297 296 295 295
294 294 295 295 295 295 296 296 296 296 296 296 296 296 296 296 295 295 295 294 294 294 294 294 294 294 294 293 293 294 294 295 295 296 296 297 297 298 299 299 299 299 299 299 300 300 300 300 300 301 301 301 301 301 301 300 300 300 300 300 300 300 300 300 300 299 298 298 297 297 297 297 298 298 297 297 297 297 297 296 297 297 297 296 296 296 295
294 294 295 295 295 295 296 296 295 296 296 296 295 295 295 295 295 294 294 294 294 294 294 294 294 294 293 293 293 293 293 293 294 294 295 296 297 297 298 298 298 298 298 298 298 299 299 299 299 300 300 300 300 300 300 300 300 300 300 300 300 300 299 299 299 299 298 297 297 297 297 297 297 297 297 296 296 296 296 297 297 297 297 297 296 296 295
294 294 294 295 295 295 295 295 295 296 295 295 295 295 295 295 294 294 294 293 293 293 293 293 292 292 292 292 292 291 291 291 292 292 293 293 294 294 295 296 296 297 297 297 297 298 298 298 299 299 299 298 297 297 297 297 298 299 300 300 300 300 300 299 299 299 298 298 297 297 297 297 297 297 296 296 296 296 297 297 298 298 297 297 296 296 295
294 294 294 294 294 295 295 295 295 295 295 295 295 295 294 294 294 293 293 293 293 293 293 292 292 292 292 291 291 291 290 291 291 291 291 291 291 291 291 292 292 293 294 294 294 295 295 295 296 296 295 294 293 293 292 293 295 296 298 299 300 300 299 299 299 299 299 299 298 298 297 297 296 296 296 297 297 297 298 298 298 298 298 297 296 296 295
294 294 295 295 295 295 295 296 296 296 296 295 295 294 294 294 293 293 293 293 293 294 293 293 293 293 292 292 291 291 291 291 291 291 291 291 291 290 290 290 290 290 291 291 291 292 292 292 293 293 292 292 291 291 291 293 296 297 298 298 298 298 298 298 298 298 298 298 298 297 297 296 296 296 297 297 297 297 297 297 298 298 298 297 297 296 295
294 294 295 295 295 295 295 296 296 296 295 295 294 294 294 294 294 294 294 294 294 294 294 294 294 293 293 292 292 291 291 291 291 292 292 291 290 290 289 289 288 289 289 290 290 290 291 291 291 291 291 291 291 290 291 293 295 296 297 297 298 298 298 298 298 298 297 297 297 297 297 297 297 297 297 296 296 296 296 296 296 297 297 297 297 296 296
295 295 295 295 295 295 295 296 296 295 295 294 294 294 294 294 294 294 294 294 294 294 294 294 294 293 293 293 293 292 292 291 291 291 291 290 290 289 289 288 288 288 289 289 290 290 290 290 290 290 290 290 290 290 290 290 291 292 293 294 295 296 296 297 297 297 297 297 297 297 297 296 296 296 295 294 294 294 295 295 296 297 297 297 297 296 296
295 296 296 295 295 295 295 296 296 295 295 295 295 295 294 294 294 294 294 294 294 294 293 293 293 293 293 293 293 292 291 290 289 289 290 290 289 289 288 288 288 288 289 289 290 290 290 290 290 290 290 290 290 290 290 290 290 290 290 291 291 292 293 294 294 294 294 294 294 294 294 294 293 293 293 293 293 294 294 295 296 296 297 297 297 296 296
295 295 295 295 295 295 295 295 295 295 295 295 295 295 295 295 294 294 294 294 294 293 293 293 292 292 291 291 290 289 289 289 288 288 289 289 289 288 287 287 288 288 288 289 289 290 290 290 289 289 289 289 289 290 290 290 290 290 290 290 290 290 291 291 292 292 292 291 291 291 292 292 292 293 293 294 294 294 295 295 296 296 296 297 297 297 296
294 294 294 294 294 294 295 295 295 295 295 294 294 293 293 293 293 293 293 293 293 292 292 291 291 290 289 289 288 288 288 288 288 288 288 288 287 287 287 287 287 288 288 288 289 289 289 289 289 289 289 289 289 289 289 290 290 290 290 290 290 290 290 290 290 290 290 290 290 290 291 292 292 293 294 294 294 295 295 295 295 296 296 296 296 296 296
292 292 292 292 292 292 293 293 293 293 293 292 292 291 291 291 291 291 291 290 290 290 290 289 289 289 288 288 288 288 288 288 288 287 287 287 286 286 286 286 287 287 287 287 288 288 288 288 288 288 288 288 288 288 289 289 289 289 290 290 290 290 290 290 290 290 290 290 290 290 291 291 292 293 293 294 294 294 294 293 293 294 295 295 295 295 295
291 292 291 291 291 291 291 291 291 291 291 291 291 290 290 290 290 290 289 289 289 289 288 288 288 288 288 287 287 287 287 287 287 287 286 286 285 285 285 285 286 286 286 286 287 287 287 288 288 288 288 288 288 288 288 288 288 288 289 290 290 290 290 290 290 290 290 290 290 290 291 291 291 291 291 291 291 291 291 291 291 292 292 293 293 293 294
292 291 291 291 291 291 291 291 291 290 290 291 290 290 290 290 290 289 289 289 288 288 288 288 288 287 287 287 287 287 286 286 286 285 285 285 285 284 284 285 285 285 285 285 286 286 286 287 287 287 287 287 287 287 287 287 287 288 288 289 289 289 289 289 289 289 290 290 290 290 290 290 289 289 289 289 288 289 289 289 290 290 290 290 291 291 292
293 292 292 291 291 290 290 290 290 290 290 290 290 290 290 290 289 289 288 288 288 287 287 287 287 287 287 287 286 286 286 285 285 285 285 284 284 284 284 284 284 284 284 284 284 285 285 285 285 286 286 286 286 287 287 287 287 287 287 287 287 288 288 288 288 288 288 289 288 288 288 288 288 287 287 287 287 288 288 289 289 290 290 290 290 291 291
293 293 292 292 291 290 290 290 290 290 289 289 289 289 290 289 289 288 288 287 287 287 286 286 286 286 286 286 286 285 285 284 284 284 284 284 283 283 283 283 283 283 284 283 283 283 283 284 284 285 285 285 285 286 286 286 286 286 286 286 286 286 287 287 287 287 287 287 287 287 287 287 287 287 287 287 287 288 288 289 290 290 290 290 291 291 292
293 292 292 292 291 291 290 290 290 290 289 289 289 289 289 289 288 288 287 287 286 286 285 285 286 286 286 285 285 284 284 283 283 283 283 283 283 282 282 282 282 282 283 283 283 282 282 282 283 283 284 284 284 284 285 285 285 285 285 285 285 285 285 285 285 286 286 286 286 286 287 287 287 287 287 287 287 288 289 289 290 290 290 291 291 291 292
Wind_Speed
6 5 6 5 3 3 5 4 5 6 6 5 6 7 7 6 5 8 7 6 6 7 6 6 6 5 5 5 5 5 6 8 9 10 11 11 10 11 11 12 12 12 12 13 13 14 14 14 14 14 14 14 14 14 14 13 12 13 17 24 32 39 42 43 44 43 42 41 42 43 43 43 42 38 32 28 24 22 21 20 19 18 15 13 12 12 11
6 5 5 4 3 4 3 4 5 5 6 8 8 7 6 8 8 9 6 6 8 6 6 8 9 8 4 2 5 7 8 9 10 11 11 10 10 10 11 11 12 12 12 13 13 14 15 16 16 16 16 16 15 15 15 15 15 15 15 17 22 28 35 40 43 44 45 43 43 45 47 45 40 36 31 26 23 21 20 18 17 16 14 13 13 12 12
6 6 5 4 2 3 4 5 4 5 6 7 6 5 4 5 7 8 5 6 8 6 6 8 7 5 2 5 7 7 8 8 9 10 10 9 9 10 10 11 12 13 14 15 17 18 18 19 19 19 20 20 19 19 17 16 16 17 18 19 20 21 25 29 34 39 44 45 44 44 43 38 32 28 26 23 22 20 18 16 16 15 13 13 13 13 14
6 4 5 7 5 3 5 6 5 6 7 6 5 4 5 6 6 5 3 4 6 5 4 3 3 6 6 4 5 5 6 7 8 7 7 8 9 11 13 14 14 15 16 18 19 21 21 22 23 23 24 24 24 24 24 22 20 21 22 23 24 24 24 24 26 29 35 40 43 42 38 34 30 28 26 23 21 19 16 15 15 14 13 14 14 14 15
6 4 5 5 4 5 8 7 7 10 9 7 5 3 5 7 6 5 4 6 6 3 3 2 2 4 3 2 3 4 6 6 5 5 7 9 12 14 16 17 18 19 20 21 22 23 24 25 26 27 27 28 28 28 28 28 27 26 26 26 27 27 27 26 26 27 30 35 40 40 34 31 32 30 27 24 20 17 16 15 14 14 14 14 14 15 15
6 4 2 3 3 6 8 5 7 10 9 8 7 5 6 7 4 3 4 4 4 3 5 5 4 2 2 3 4 5 5 3 4 6 9 13 15 17 18 20 21 22 23 24 25 26 27 28 29 30 30 31 31 32 32 33 33 32 30 29 28 29 29 28 27 29 31 33 38 36 30 28 30 30 26 22 19 17 16 14 14 14 14 14 15 16 16
4 1 3 1 7 7 4 3 3 6 6 7 7 5 6 5 4 4 4 4 4 5 5 6 5 2 2 4 5 3 2 0 5 9 12 15 18 19 20 21 22 23 24 25 26 27 29 30 31 32 33 33 33 35 35 35 36 36 34 32 30 29 30 29 29 30 33 35 37 34 30 30 31 28 25 22 21 18 16 15 14 14 14 15 16 16 17
2 1 3 5 5 4 5 6 4 2 1 2 1 5 6 3 4 4 4 4 4 5 6 6 4 3 4 5 5 5 4 3 8 12 15 18 20 20 21 21 22 23 24 25 26 28 30 31 32 33 33 34 35 36 36 36 37 37 36 35 33 31 30 30 29 30 35 38 39 37 35 34 32 29 26 23 21 18 16 15 15 14 14 15 16 16 17
2 2 3 3 4 7 6 4 3 1 1 2 2 3 5 5 3 3 4 3 4 5 6 6 5 5 4 3 4 7 7 9 13 15 17 20 21 22 22 23 23 24 24 25 26 28 31 32 33 34 34 35 36 37 38 37 37 37 37 36 35 33 31 30 29 29 34 39 41 39 38 35 32 30 26 22 19 17 16 15 14 14 15 15 15 16 17
2 2 3 3 4 5 5 3 4 2 3 6 6 4 2 5 3 1 4 4 5 7 7 7 4 2 0 3 5 7 10 14 17 19 21 22 22 23 24 24 25 25 26 27 29 31 33 34 34 34 35 36 37 38 38 38 37 36 36 36 34 32 32 31 29 28 32 38 40 39 38 36 32 27 24 20 18 16 14 14 14 14 14 14 14 15 15
1 3 4 3 3 5 5 5 6 7 8 7 3 3 1 4 5 4 4 6 6 7 8 6 2 2 3 4 8 14 18 19 20 22 24 24 24 24 25 25 27 28 28 30 32 33 35 35 34 33 34 34 34 35 36 36 35 36 36 35 32 31 32 31 29 29 33 37 40 40 38 36 31 27 24 20 17 15 14 14 14 13 13 13 13 13 13
2 3 3 3 3 3 4 5 6 10 11 6 3 2 3 6 9 11 9 9 8 7 8 6 1 1 4 7 12 19 21 22 23 23 24 25 25 26 26 26 27 28 29 32 34 35 35 34 32 30 29 29 30 32 33 33 35 37 36 32 29 29 30 29 28 31 33 36 39 39 37 33 29 25 21 17 15 14 14 13 12 12 12 11 11 11 13
3 3 3 3 2 3 4 5 7 11 9 5 4 3 5 8 13 15 11 11 11 10 11 9 6 9 13 16 20 22 22 24 25 24 24 25 26 26 27 27 28 29 32 34 36 35 34 31 29 26 25 26 28 30 32 34 36 36 32 29 29 29 27 26 28 32 34 36 38 35 31 28 23 19 16 14 13 13 12 11 10 9 9 8 9 10 13
1 2 2 2 3 2 3 5 7 8 4 1 2 5 9 11 13 13 11 12 13 13 14 15 14 18 21 23 25 25 23 24 26 25 25 26 27 28 27 27 28 31 35 36 35 34 31 28 26 24 23 26 28 29 33 37 36 32 28 28 29 28 25 25 29 32 34 35 33 28 25 22 19 16 14 13 12 11 9 8 7 5 6 7 9 11 13
0 1 1 1 2 2 3 3 4 4 1 3 8 11 12 13 13 13 13 14 14 15 17 18 19 22 23 25 27 27 26 25 26 26 25 26 28 29 28 29 31 33 36 36 34 31 29 26 24 23 24 27 29 31 35 38 35 30 27 28 27 24 24 27 30 33 33 30 27 25 22 19 16 14 11 9 7 6 4 2 2 4 6 9 11 13 14
1 1 1 2 3 3 2 1 1 4 8 12 11 9 10 13 15 15 16 17 18 19 20 21 21 23 25 26 27 28 28 28 28 27 26 26 28 29 29 31 33 34 34 33 31 30 27 24 23 23 24 27 31 34 36 35 32 28 27 27 25 24 27 30 31 31 31 28 25 23 20 18 16 14 11 10 7 5 3 3 3 5 8 11 12 14 15
2 4 6 6 6 5 3 2 7 13 15 13 9 9 12 15 15 15 17 19 20 20 22 23 23 24 26 27 27 29 31 31 29 28 28 27 27 28 30 32 34 33 31 29 29 28 26 22 21 22 24 27 31 34 34 31 27 25 24 24 25 28 32 34 32 32 32 29 24 20 18 17 16 15 14 11 9 7 6 5 5 7 9 11 12 13 14
4 5 8 9 9 8 7 11 16 17 14 12 11 13 17 17 16 17 18 20 21 21 22 24 25 25 26 27 29 30 31 31 30 29 28 28 27 27 30 32 33 31 28 27 27 28 23 19 19 21 24 26 26 26 25 21 18 19 24 29 33 35 36 35 33 32 30 26 22 20 18 16 15 14 12 9 9 9 8 7 6 7 9 10 11 13 14
4 4 4 6 10 14 17 21 21 16 13 15 17 19 21 20 20 20 20 21 22 22 23 25 27 27 27 28 30 30 29 29 28 27 27 27 27 27 30 32 31 28 26 25 26 25 20 16 18 21 22 20 16 11 9 10 19 28 33 37 38 38 38 37 33 28 25 23 22 19 17 15 13 11 8 8 9 9 9 8 6 7 8 9 11 12 15
4 5 8 14 21 24 23 20 17 14 14 17 18 19 20 20 20 21 22 23 24 25 25 26 27 29 29 29 29 29 27 27 27 27 28 27 27 28 31 31 28 25 22 22 23 21 16 15 17 15 12 10 7 10 16 21 28 33 35 37 37 37 37 34 29 26 23 20 18 17 15 13 11 8 7 8 9 9 8 7 6 5 7 9 11 13 16
5 6 10 15 17 18 17 16 16 17 18 19 19 19 19 20 22 24 25 26 26 27 27 26 26 28 28 27 26 27 27 27 27 27 28 28 28 30 31 30 26 22 20 21 21 17 15 14 11 8 9 7 11 20 26 29 32 35 35 35 34 33 31 30 27 25 22 19 17 16 14 12 9 8 7 9 10 8 7 5 5 6 8 10 11 13 16
5 6 10 11 7 7 15 22 23 22 22 22 23 23 24 25 27 27 27 27 27 26 25 23 23 26 28 28 28 28 28 28 28 28 28 29 30 32 31 28 23 20 19 19 17 15 14 11 8 12 13 14 20 24 26 28 30 31 31 31 29 29 28 27 25 23 21 19 16 14 12 11 9 9 9 10 10 9 8 8 9 10 11 12 13 14 17
8 13 21 21 12 11 21 29 28 26 27 27 27 28 28 28 29 26 25 25 26 26 25 24 23 26 29 30 29 28 27 27 27 27 27 28 30 31 28 24 21 20 18 16 14 14 12 9 11 14 14 19 24 25 27 29 29 29 28 28 28 28 26 24 22 21 20 19 16 13 12 11 10 10 11 12 11 11 11 11 10 11 12 14 16 18 20
15 22 29 28 22 22 28 32 32 31 32 31 31 30 29 28 26 24 23 25 26 27 27 25 23 25 27 27 26 25 25 26 26 26 27 28 29 27 23 20 19 19 16 14 14 13 10 11 14 15 18 23 22 23 28 28 27 27 27 26 28 28 26 23 21 19 18 18 15 13 12 11 11 11 11 11 11 11 11 10 10 10 12 14 17 18 20
20 26 30 30 29 31 33 34 35 34 30 29 29 28 26 25 24 25 26 27 25 25 26 26 24 22 23 23 23 23 24 26 26 25 26 27 26 23 20 18 17 16 14 12 12 11 11 15 19 21 23 21 18 22 27 27 25 26 25 24 26 27 24 22 20 18 17 15 12 10 10 11 11 11 10 9 8 8 9 9 9 10 11 13 16 18 20
24 28 31 31 33 34 33 32 31 28 25 25 25 25 24 26 27 27 27 26 24 23 24 25 24 22 20 21 21 22 23 24 24 24 25 25 24 22 18 15 14 13 9 7 9 12 15 19 23 24 22 19 19 22 25 25 25 24 22 21 22 23 22 20 19 17 14 11 9 9 9 10 10 9 8 8 7 8 8 9 10 11 11 11 14 16 19
25 27 27 25 27 29 28 25 25 25 26 26 25 24 25 26 26 26 25 22 21 20 20 21 21 19 18 19 20 20 20 21 21 22 22 20 20 19 15 11 10 8 7 7 9 14 19 23 25 23 21 20 20 21 23 25 24 21 20 20 20 20 19 17 15 14 11 8 7 8 9 9 8 8 8 8 7 7 8 9 11 12 13 12 13 15 18
27 27 24 21 22 26 26 25 25 26 26 25 24 24 25 24 23 23 22 20 18 18 18 17 17 17 17 17 17 17 17 17 18 17 15 13 13 12 9 8 8 7 9 8 10 17 23 25 23 22 20 19 19 21 25 26 23 20 20 19 17 17 16 13 12 11 8 7 7 8 8 9 9 9 9 8 7 7 7 8 9 12 14 15 14 17 19
27 27 25 24 25 26 26 24 24 24 23 23 22 22 21 21 22 22 21 20 19 19 18 16 16 16 14 13 13 14 14 13 12 10 6 4 3 3 6 7 7 9 12 14 17 22 26 24 22 22 22 20 20 24 28 27 23 21 19 17 16 16 15 12 11 9 6 5 6 7 9 10 10 9 7 6 6 6 7 8 9 11 14 15 15 18 21
30 27 25 25 23 22 21 21 21 20 20 20 20 20 20 21 22 24 24 23 22 20 18 16 15 13 10 9 11 12 10 6 4 5 6 9 14 18 18 16 16 18 22 23 24 26 25 24 22 22 21 21 24 27 28 25 22 19 18 17 16 15 13 10 8 5 4 4 7 9 10 10 7 6 5 3 3 3 5 8 10 12 14 15 15 18 21
28 25 21 20 17 16 16 16 15 16 17 17 18 21 21 21 22 23 22 20 19 16 14 11 8 6 6 7 7 7 6 8 10 12 14 17 21 24 25 24 25 27 28 27 26 24 21 19 18 19 21 24 27 29 26 21 19 19 19 17 15 12 10 8 6 4 3 6 9 11 10 7 5 4 2 1 2 3 6 8 10 12 14 14 15 17 20
21 17 13 12 12 12 12 13 14 16 17 17 18 19 18 17 18 18 14 11 9 7 5 3 1 2 4 4 6 9 12 16 19 21 22 25 27 28 29 30 30 29 27 25 22 19 16 14 14 16 18 21 24 24 21 19 19 18 16 13 12 10 9 7 6 6 7 9 10 9 7 5 4 2 1 2 3 5 7 9 10 12 13 14 16 17 19
15 12 8 7 8 10 12 14 14 14 13 12 13 14 14 14 13 10 6 4 2 2 5 5 6 7 8 11 15 19 21 25 28 29 29 28 27 27 28 30 30 29 27 23 20 18 16 15 15 15 16 18 19 20 19 18 16 15 13 11 11 11 11 9 9 9 10 11 10 8 6 5 3 2 3 4 5 6 7 9 10 12 13 14 15 16 18
9 8 8 8 9 10 11 12 11 8 8 10 12 11 8 5 2 2 4 4 6 8 10 11 12 14 16 19 22 24 26 29 31 32 31 29 27 25 24 24 25 25 25 23 21 19 18 18 18 18 19 19 19 18 17 15 14 13 13 13 12 12 12 11 10 10 11 11 9 7 5 4 2 3 4 5 5 6 7 8 10 12 13 14 15 16 17
8 9 8 7 8 8 8 7 7 7 9 10 7 3 5 8 10 11 11 12 14 15 16 17 18 21 23 26 27 29 31 32 33 33 32 31 30 27 25 24 23 23 22 22 21 20 18 16 15 15 16 16 16 16 15 14 14 14 14 13 13 13 12 11 10 10 10 9 7 6 4 3 2 2 3 3 4 5 7 9 10 12 14 14 15 15 15
9 9 9 8 8 8 7 6 6 7 7 3 6 11 15 16 17 17 18 20 22 23 23 24 25 26 28 29 30 31 32 33 34 33 33 32 31 29 28 27 26 24 23 22 21 19 17 15 12 11 12 13 14 14 15 14 14 14 13 12 12 11 11 10 10 9 8 7 5 4 3 2 2 2 2 3 5 6 8 9 11 12 13 14 15 15 14
8 8 9 10 8 8 7 5 4 2 2 9 16 20 22 23 24 25 25 26 27 27 28 29 30 31 31 31 31 31 32 33 33 33 33 33 32 30 30 30 29 27 26 25 23 20 18 16 13 12 12 13 12 12 12 12 12 11 11 10 9 9 9 10 9 8 6 5 4 4 3 2 2 2 3 4 5 7 9 10 11 12 13 14 14 14 14
6 6 7 7 5 4 3 3 9 13 17 21 24 26 27 28 28 28 29 28 28 28 29 30 30 30 30 29 29 29 29 29 29 30 30 30 31 31 32 31 30 30 29 27 24 22 21 19 17 16 16 15 14 13 12 10 8 8 8 8 7 6 6 7 7 6 5 5 4 4 3 3 3 3 4 4 5 7 9 10 11 12 13 14 14 14 14
6 6 4 4 6 7 9 14 19 23 25 28 29 29 30 30 30 31 32 32 31 31 31 31 31 30 29 29 29 28 28 26 26 26 26 26 27 29 30 28 27 26 25 23 20 19 18 17 16 16 15 15 13 12 11 8 6 5 6 6 6 5 5 5 4 3 4 4 5 4 4 3 3 3 4 4 5 7 8 9 10 11 13 14 14 14 14
9 10 11 12 15 18 19 21 24 27 29 30 30 30 30 30 31 32 33 32 31 30 30 30 30 29 29 28 28 28 27 25 25 24 24 23 24 25 25 24 22 20 18 16 15 14 13 12 12 12 12 12 11 10 9 7 5 4 4 4 4 4 4 3 2 2 4 4 4 4 4 3 3 3 3 4 5 6 7 9 10 11 12 13 13 14 14
11 14 16 19 22 24 25 26 27 29 29 29 29 29 29 30 31 31 31 29 28 27 26 26 26 26 26 25 25 24 24 23 23 22 22 21 21 22 23 21 19 16 14 13 12 11 10 10 10 11 11 10 10 10 10 9 8 8 7 6 6 5 4 4 3 2 2 3 3 3 2 2 2 3 4 4 6 7 8 9 10 11 11 12 13 13 13
14 15 19 22 24 26 27 27 27 28 28 28 28 28 28 27 27 27 26 25 23 22 22 22 22 22 22 21 21 21 21 21 21 20 19 20 20 21 21 19 16 14 12 12 11 10 10 10 11 11 11 11 11 11 10 10 9 9 9 8 8 7 7 6 5 5 4 3 2 1 1 1 2 3 4 5 7 8 9 9 10 10 10 11 12 12 12
16 18 20 23 24 25 26 26 26 27 28 27 26 25 24 23 22 22 21 19 18 18 18 18 18 18 18 18 18 19 20 20 19 18 18 19 20 20 19 17 15 13 12 11 10 11 11 11 12 12 12 11 11 10 9 8 8 7 7 7 6 6 5 5 5 5 4 4 3 3 2 3 3 4 5 6 7 8 8 9 9 9 10 11 11 11 11
14 16 19 22 23 25 26 26 26 26 25 24 22 21 19 18 17 16 15 15 15 16 16 16 17 17 17 16 17 18 19 19 19 19 18 17 18 18 18 16 15 13 12 11 10 10 11 12 12 11 11 10 9 9 8 7 7 6 6 5 5 4 3 3 3 3 2 2 3 3 3 4 4 5 6 7 7 7 8 8 9 9 10 11 11 11 11
13 14 16 17 18 20 22 23 23 23 22 20 20 18 17 16 16 15 14 14 15 15 15 15 16 17 17 17 18 19 19 18 19 19 18 17 18 18 17 16 14 13 12 10 9 9 10 10 10 10 9 9 8 8 7 6 6 5 5 5 4 3 2 2 2 2 2 3 3 3 4 4 4 4 5 5 6 7 8 9 9 9 10 11 11 11 11
17 17 17 17 16 17 18 18 19 19 18 18 19 19 18 17 17 16 14 14 14 14 14 15 16 17 18 18 19 19 18 18 17 17 18 18 18 17 16 15 15 14 13 11 9 9 9 9 8 8 7 7 7 6 6 5 5 4 4 4 3 3 3 2 2 3 3 3 3 4 4 4 4 4 4 4 5 6 8 9 10 10 11 12 12 12 13
18 19 19 19 18 18 18 17 17 17 17 18 20 20 18 16 16 15 15 14 14 14 14 14 15 16 17 18 18 18 18 17 16 16 17 18 17 16 15 15 15 14 13 12 11 9 9 7 6 6 5 5 5 4 4 4 4 4 3 3 3 3 3 3 3 3 3 3 4 4 4 4 4 4 4 4 5 5 6 7 9 10 11 11 12 13 14
16 16 16 17 17 17 17 16 15 15 16 16 16 16 14 13 13 13 13 12 12 12 12 12 13 13 14 15 16 16 16 16 15 15 16 16 16 16 15 15 14 14 13 12 11 10 9 8 7 5 4 3 3 3 2 2 2 2 2 2 2 2 2 2 2 2 2 3 3 3 4 4 4 5 5 6 7 8 8 8 9 9 10 10 11 11 12
11 12 12 13 13 14 13 12 11 12 12 11 11 11 10 9 10 10 10 10 10 10 10 10 10 10 11 12 14 14 15 15 15 14 14 14 15 15 15 15 14 13 12 11 10 9 8 8 7 6 5 4 3 3 3 2 1 2 2 2 2 2 1 1 1 1 1 1 2 2 3 3 4 5 6 8 9 10 10 11 11 11 12 12 12 12 13
7 8 9 9 10 11 10 8 8 9 9 8 8 8 6 6 7 8 8 8 9 10 9 9 8 9 10 11 13 14 14 14 14 14 13 13 14 14 14 14 14 14 13 12 11 9 8 7 6 5 5 5 4 4 4 3 1 1 1 1 1 1 1 1 2 2 2 2 3 3 4 4 5 6 7 8 9 10 11 11 12 13 14 14 14 14 14
9 9 8 9 9 9 7 5 6 7 7 6 6 5 3 2 4 6 6 7 9 10 9 8 7 8 9 11 13 14 14 14 14 13 13 13 14 14 14 13 13 13 13 13 11 10 8 6 5 4 4 4 4 4 3 3 1 1 2 3 3 3 3 3 3 4 4 4 5 5 5 6 7 7 8 9 10 10 11 11 12 13 14 14 14 14 14
10 10 9 9 9 9 7 5 3 3 4 4 5 4 2 1 2 3 4 5 7 6 5 5 4 5 7 9 10 11 12 13 13 13 13 14 14 14 14 13 13 12 12 12 11 9 7 6 6 5 5 4 3 2 2 2 1 2 4 4 4 5 5 5 5 6 5 5 6 6 6 7 7 8 8 9 10 10 10 11 11 12 12 13 13 13 13
Wind_Direction
263 229 238 253 247 231 228 223 207 196 204 201 189 210 210 162 177 248 237 189 213 235 221 234 263 274 286 323 14 58 77 62 47 40 35 26 18 11 9 7 2 357 351 342 335 330 329 328 325 324 322 319 315 311 309 311 313 308 292 273 262 257 253 251 250 250 251 253 252 251 249 246 240 234 230 228 225 223 224 226 230 234 234 234 238 247 259
301 280 263 253 242 246 252 248 230 202 198 208 215 226 208 184 212 239 229 222 243 241 212 234 271 292 295 6 56 59 50 36 26 21 18 13 11 8 4 359 353 347 344 338 331 325 321 317 316 316 316 316 313 309 306 301 301 306 308 297 281 268 259 255 253 252 253 253 252 250 246 239 232 228 226 226 224 220 220 223 227 229 229 232 240 251 262
300 295 307 310 275 238 251 264 243 202 203 221 235 242 208 196 239 257 257 261 269 260 221 235 283 323 82 82 47 36 33 23 13 8 5 5 5 1 353 347 340 333 329 326 323 320 317 316 315 314 313 312 308 305 303 298 295 296 295 294 293 287 278 270 264 259 258 258 257 252 244 234 226 224 225 225 223 220 218 221 224 226 230 235 244 255 266
277 288 309 300 321 322 269 247 217 202 207 217 223 222 197 187 212 242 274 279 262 251 229 236 354 47 80 58 13 9 10 7 7 8 11 8 356 348 342 337 332 325 319 316 314 312 311 311 311 311 311 308 306 306 303 299 295 293 290 289 290 288 286 283 278 271 266 263 261 256 248 237 228 227 227 224 220 218 217 219 223 228 234 243 252 262 272
269 278 276 280 350 335 278 239 194 197 211 219 225 240 226 199 181 184 216 234 230 206 134 112 19 21 32 356 336 327 324 341 12 22 13 358 343 336 332 327 324 320 316 313 310 306 305 305 304 306 307 305 304 302 300 298 296 293 290 288 287 284 281 279 278 275 270 265 262 256 246 236 231 226 222 218 214 214 216 218 224 231 239 251 261 269 278
266 280 319 349 328 269 256 229 185 189 201 206 206 224 229 210 181 167 197 216 208 168 135 143 178 240 304 297 292 295 294 313 12 358 344 339 333 328 324 320 317 315 312 309 306 303 303 301 300 300 300 300 299 296 294 293 292 292 290 286 282 280 276 273 272 272 270 265 260 251 235 228 227 219 212 210 208 210 212 217 227 237 247 259 267 274 283
253 278 78 281 258 249 262 287 216 196 186 171 178 233 246 210 183 180 184 182 177 173 163 157 168 203 294 294 282 269 219 309 346 335 331 333 331 327 324 320 316 314 311 309 307 304 301 299 298 297 296 296 295 292 291 291 289 288 289 285 279 274 270 267 264 265 265 260 253 241 226 223 222 212 204 204 203 204 208 216 230 242 254 263 268 275 283
239 124 150 207 246 286 303 303 301 276 208 113 94 300 291 253 202 195 185 193 201 194 192 188 190 223 263 276 257 218 201 288 320 321 323 328 328 325 324 321 316 314 312 310 308 305 302 301 299 298 297 297 296 292 290 289 287 285 286 284 279 270 264 262 259 261 261 255 246 235 224 218 212 203 201 201 198 201 208 217 230 244 253 261 267 275 281
189 181 211 242 312 316 298 303 330 353 326 293 223 247 285 289 263 180 162 197 246 237 231 239 232 216 225 267 252 223 237 290 311 315 318 322 321 319 319 317 314 312 310 308 307 306 304 302 300 299 298 297 296 293 290 288 287 285 284 283 279 272 265 260 257 259 259 252 243 231 218 208 201 198 198 196 195 203 212 220 232 242 249 258 267 275 280
160 190 257 292 303 278 266 280 285 279 281 256 214 163 310 300 297 173 170 210 246 239 246 258 238 196 333 300 281 288 298 304 311 314 315 317 317 315 314 313 311 310 308 307 308 308 306 303 300 300 299 298 296 292 289 288 287 285 282 279 278 275 269 262 258 258 256 248 238 222 208 201 198 194 190 190 195 204 213 222 231 239 249 259 268 275 281
135 166 226 241 226 241 249 257 278 317 323 287 224 96 352 282 305 306 250 250 264 255 260 272 269 10 351 275 286 314 320 313 311 312 312 312 312 310 310 310 308 308 308 308 309 309 308 305 303 302 299 296 292 289 287 287 285 281 278 278 281 282 276 268 261 257 251 243 231 215 202 196 190 182 181 187 194 201 210 222 232 242 254 261 267 277 288
218 172 220 241 219 248 266 262 294 330 339 348 60 71 266 280 314 313 274 260 282 291 288 293 315 280 269 268 295 313 314 308 307 308 308 309 311 310 309 309 308 308 309 310 311 311 310 307 305 302 298 293 290 288 289 288 283 278 276 279 285 286 280 269 258 250 242 231 217 202 190 183 177 173 177 185 190 199 211 224 237 249 256 263 274 288 296
229 209 240 266 249 260 275 289 325 341 349 25 100 184 256 290 311 317 298 276 291 306 298 291 277 274 285 295 302 306 305 303 303 304 305 308 310 310 310 309 309 310 311 312 313 312 310 306 304 302 297 290 287 288 289 289 285 282 280 280 285 285 275 259 247 240 229 212 199 186 175 171 167 164 170 179 191 205 216 227 239 249 262 277 290 296 297
240 195 203 274 288 271 267 297 336 356 17 109 209 278 300 306 309 319 313 291 295 304 298 290 287 291 297 298 297 298 300 300 301 302 304 306 308 309 311 310 310 311 312 313 313 311 308 304 303 302 295 287 286 287 287 288 289 289 284 278 279 278 264 245 234 225 211 196 184 173 165 162 158 159 171 187 202 211 215 225 237 262 292 301 304 303 302
299 31 20 293 262 279 310 330 359 33 78 264 284 297 309 315 318 321 313 302 302 302 296 291 290 291 293 291 291 295 298 299 301 301 302 305 307 309 311 310 311 313 313 312 311 309 306 305 304 302 295 289 288 287 285 287 290 289 280 273 271 262 241 223 212 202 189 175 166 162 159 155 155 162 171 175 181 188 192 220 280 317 321 317 314 310 308
122 140 244 201 199 248 300 103 164 283 282 283 288 293 304 312 314 311 305 301 301 299 295 292 289 289 290 292 296 301 303 305 304 301 302 304 305 308 309 308 311 314 312 310 308 306 306 308 306 302 298 294 291 287 286 286 285 278 268 261 254 234 210 194 182 172 161 153 155 158 154 147 145 141 128 114 110 108 78 21 340 326 322 316 313 312 315
210 206 233 250 264 279 282 277 296 297 288 278 276 283 290 295 298 298 298 297 297 297 295 291 288 288 291 296 300 303 305 305 303 300 301 302 303 304 305 307 312 313 309 306 305 306 309 310 305 301 302 300 294 290 290 290 282 268 252 235 215 195 179 166 155 147 144 147 151 146 134 127 122 112 102 97 90 72 46 21 346 326 317 310 310 316 322
299 275 251 256 273 284 292 302 306 301 284 269 277 288 289 289 292 296 298 298 299 300 296 289 286 287 291 296 300 303 305 304 301 300 300 300 300 300 302 307 311 309 304 301 303 306 309 308 301 302 304 302 297 291 290 284 261 230 209 193 179 166 155 147 141 140 143 143 139 129 120 114 108 101 97 87 67 47 30 15 349 324 309 308 315 323 327
302 294 263 278 294 298 303 306 305 297 277 269 280 290 290 289 292 295 297 299 300 300 295 288 283 283 289 294 298 301 302 302 302 303 301 300 299 299 303 308 309 305 301 299 301 305 305 301 300 300 299 295 288 271 249 212 186 176 171 166 158 148 139 135 135 140 141 135 129 125 121 116 111 105 93 66 45 33 22 6 340 317 310 318 328 331 331
235 246 267 285 290 291 296 297 294 292 290 285 285 291 292 289 287 289 293 296 296 295 293 289 284 282 287 293 297 300 300 299 302 303 302 301 299 301 305 308 305 300 297 297 301 303 299 299 302 292 277 271 238 167 145 143 146 145 142 140 137 133 131 132 136 141 140 131 123 120 119 118 115 105 78 52 37 26 14 356 335 327 334 340 341 336 333
275 268 270 278 283 289 292 287 283 291 300 300 297 298 298 294 291 292 294 295 295 293 292 291 287 284 287 293 299 300 298 298 300 301 301 300 299 302 306 306 300 294 292 295 299 296 291 298 291 239 208 190 158 141 131 128 128 126 123 124 126 127 130 133 137 138 136 128 121 120 122 122 115 96 66 46 36 27 20 15 16 16 9 0 351 341 339
281 264 268 273 272 280 286 287 290 295 300 301 298 297 298 299 298 298 298 297 296 294 293 293 292 290 291 295 298 298 297 297 297 298 298 298 300 303 305 301 294 287 287 291 290 283 286 288 240 206 193 163 145 139 133 128 123 118 118 122 127 130 133 135 136 135 132 131 128 126 127 124 108 86 66 58 57 57 56 52 44 34 21 10 2 356 351
252 264 276 280 275 269 280 288 294 298 302 302 297 294 297 300 301 301 299 297 298 297 295 294 293 293 295 296 295 294 293 293 294 295 295 297 301 305 303 296 290 285 284 283 274 269 273 252 217 214 196 161 146 140 136 131 126 126 128 131 135 139 139 139 139 134 132 138 141 138 135 125 104 85 78 76 71 61 55 49 39 27 15 6 3 1 356
263 274 280 283 282 279 284 291 296 299 302 302 297 295 299 301 301 299 297 297 298 298 296 295 294 295 297 296 293 291 290 291 292 293 294 297 302 302 298 293 291 287 281 271 259 255 245 217 204 192 169 155 148 145 144 141 140 143 143 140 142 145 145 145 145 141 140 146 149 145 135 121 101 88 84 81 69 54 48 42 28 15 5 359 358 357 355
272 280 284 286 285 283 286 290 292 294 298 298 295 296 299 300 299 297 296 295 295 294 295 296 297 298 298 297 294 292 289 290 291 291 294 298 299 295 290 291 291 285 275 261 244 228 207 194 182 161 149 150 153 154 152 151 153 156 153 147 147 150 150 147 147 148 149 148 145 139 130 118 107 97 88 82 72 55 45 39 25 12 2 355 351 351 353
285 288 291 291 287 286 287 288 289 294 300 300 296 295 295 296 297 295 293 292 292 293 295 296 297 298 297 296 295 291 287 288 291 293 295 296 293 289 289 291 288 277 259 231 208 192 182 176 165 153 149 155 160 157 154 152 155 158 154 148 148 151 151 149 149 150 149 140 132 133 129 120 113 103 90 85 75 54 42 34 22 14 7 358 351 350 352
296 295 293 289 286 288 291 291 293 301 304 300 295 292 293 295 296 295 293 290 290 293 294 293 294 297 297 295 292 289 288 292 295 295 293 290 288 289 288 282 273 251 212 181 174 174 170 161 151 148 152 158 162 162 159 157 158 159 156 153 154 154 153 149 145 141 134 119 120 132 130 123 118 108 94 84 69 47 31 17 7 5 5 2 359 359 357
300 297 291 281 279 287 294 296 296 298 297 293 290 289 290 291 292 292 291 289 287 289 291 293 297 301 300 296 293 292 294 296 293 290 288 285 285 286 275 252 237 208 180 165 158 162 162 155 148 151 158 161 164 167 166 164 165 166 164 162 160 157 155 149 139 130 115 101 115 129 128 124 119 109 95 82 64 44 23 3 352 353 356 358 1 4 2
302 299 290 279 278 286 292 292 290 291 290 287 284 283 284 286 287 287 287 287 289 291 292 296 302 304 299 295 295 294 294 291 284 277 272 253 212 153 157 181 186 168 158 152 149 153 157 157 157 162 167 169 171 172 171 170 172 171 167 165 162 159 156 148 137 126 107 102 123 131 128 124 117 109 99 82 58 41 21 3 348 342 346 351 357 1 3
304 298 289 282 282 286 288 287 286 286 283 280 279 279 281 285 286 287 288 288 289 290 290 295 302 305 301 297 293 284 273 253 213 184 158 138 124 119 123 136 144 141 141 145 150 156 160 164 168 172 175 176 175 173 172 172 172 169 166 163 159 155 148 139 129 116 102 120 135 135 131 128 122 114 105 77 42 17 359 354 346 338 340 348 356 359 0
308 303 295 288 283 278 276 277 279 279 279 280 283 285 287 289 290 290 289 288 287 287 289 295 300 296 288 285 272 246 206 164 149 142 131 123 118 116 119 124 128 127 130 140 152 160 164 169 176 182 184 179 173 169 168 170 170 167 163 157 149 140 130 121 115 106 113 132 137 135 134 137 139 133 119 39 351 327 325 332 335 334 338 348 354 356 358
320 316 305 288 273 264 267 275 281 283 285 288 290 291 295 299 300 298 296 295 294 291 287 285 254 219 232 214 165 143 132 125 122 118 112 109 110 111 111 113 116 116 119 128 141 150 158 168 178 183 181 173 165 163 165 168 167 164 158 149 137 126 117 111 111 117 129 142 147 146 147 158 167 171 232 300 313 315 318 323 328 333 341 348 351 352 356
335 336 328 311 297 287 287 292 296 296 297 301 305 307 308 307 306 303 296 287 272 150 141 139 137 140 144 137 127 120 115 111 109 106 104 102 103 104 105 108 113 115 114 115 121 126 133 141 148 152 152 149 149 152 157 161 162 159 152 141 132 125 121 118 119 129 143 155 160 160 159 169 191 239 272 288 303 315 323 330 335 341 348 350 349 350 355
340 340 332 328 325 314 303 304 309 314 319 323 322 316 307 298 282 161 149 149 144 140 138 136 131 127 124 120 115 111 109 105 101 99 100 100 100 101 103 107 112 114 111 110 112 113 113 118 125 130 135 138 142 146 149 151 151 145 139 135 134 133 133 131 131 139 151 159 161 162 169 185 227 268 280 290 306 322 333 339 346 349 351 350 349 350 355
359 349 340 338 340 336 327 324 324 321 323 330 341 31 113 119 120 122 121 116 116 121 126 128 127 121 114 109 104 101 100 99 97 97 99 100 101 102 103 104 107 109 108 105 104 104 106 110 117 125 133 139 140 141 142 143 143 138 137 139 141 144 146 144 142 148 154 156 158 167 182 205 238 263 287 309 328 340 342 346 351 353 352 350 350 351 355
358 354 350 346 345 343 338 328 314 304 306 338 81 99 104 104 106 109 110 108 108 110 112 116 117 112 105 100 96 94 95 96 97 98 99 100 102 103 103 101 101 102 102 98 96 99 107 113 116 124 132 135 135 136 137 138 138 137 138 141 145 150 154 152 151 155 158 157 160 170 180 206 237 266 305 326 337 344 347 350 354 353 351 350 350 351 356
352 354 352 348 344 336 325 315 303 289 127 113 105 100 100 101 102 104 105 105 104 104 104 104 104 101 96 92 90 88 89 90 93 95 96 98 101 103 101 100 100 100 99 98 99 103 109 113 116 123 126 123 121 126 131 133 135 135 132 128 127 134 144 149 154 160 162 160 168 182 196 216 239 279 310 319 332 344 349 351 352 350 349 348 348 350 356
8 2 353 349 348 339 341 101 111 111 110 108 104 102 103 104 103 102 101 99 97 96 94 93 93 92 91 90 88 85 84 84 85 87 89 91 94 94 93 93 94 94 94 95 99 102 104 105 106 106 105 100 98 99 103 110 123 134 135 131 126 127 136 145 153 162 169 174 186 199 212 228 251 282 303 316 336 348 350 351 352 352 350 348 346 348 355
46 46 51 73 86 96 111 114 111 109 109 108 106 105 105 103 101 98 96 95 93 91 89 89 90 90 90 90 89 87 85 83 81 81 80 80 81 84 84 84 86 88 90 92 94 94 95 97 98 96 91 85 81 78 75 77 90 110 126 133 132 133 141 148 152 165 181 191 201 214 227 242 265 287 306 326 342 351 353 355 357 356 354 351 347 346 350
76 84 93 97 98 101 106 107 106 107 108 108 107 106 104 101 100 99 97 96 95 93 91 91 90 88 86 86 86 86 86 84 82 80 80 79 79 82 82 81 81 83 86 89 90 89 88 88 86 83 77 71 65 60 56 56 69 94 120 134 138 144 155 162 175 200 207 207 213 227 239 254 282 307 326 342 354 359 1 0 358 356 356 354 350 346 347
87 96 102 103 102 103 105 106 108 109 110 109 108 107 106 105 103 101 99 98 97 96 93 91 88 85 83 82 81 82 82 83 82 81 81 80 78 78 79 77 76 77 80 82 84 88 89 86 82 77 72 69 65 60 58 62 74 88 101 108 111 113 115 117 127 158 190 208 221 233 247 275 310 334 348 357 1 2 1 358 355 353 353 353 351 348 345
91 101 107 107 105 107 109 112 113 114 112 111 111 111 109 108 105 102 101 99 96 93 90 86 84 83 81 79 77 74 71 71 73 76 76 74 70 68 68 68 66 68 73 77 80 84 86 85 81 76 71 69 66 61 58 65 76 82 87 90 92 94 94 94 95 98 98 97 99 93 57 20 10 5 3 0 0 0 358 355 353 354 354 355 355 352 347
93 98 105 107 109 112 114 115 115 115 114 114 115 114 112 110 108 105 102 98 92 86 81 76 74 73 71 69 67 64 60 58 59 62 65 67 65 62 60 58 55 56 59 63 68 72 73 72 71 68 63 61 59 53 48 54 63 70 75 80 82 83 85 84 84 84 83 79 76 68 49 25 7 357 355 357 359 359 358 358 358 359 359 1 2 359 355
99 99 101 103 107 112 114 114 115 115 114 115 116 115 114 112 108 105 102 95 87 80 77 72 67 63 58 54 53 52 51 52 52 51 54 60 62 58 54 51 49 50 51 52 56 61 63 62 61 59 55 53 52 47 40 42 46 50 55 61 64 66 70 70 69 72 68 59 46 36 22 11 3 358 360 3 3 3 4 7 7 8 9 10 11 10 6
109 107 104 102 102 105 108 109 109 110 111 112 111 109 106 103 99 96 93 90 83 76 70 65 58 52 47 44 44 44 44 47 48 47 45 48 51 51 47 45 45 46 46 45 47 55 60 60 57 52 47 44 42 37 32 33 35 35 37 40 41 45 48 46 43 44 42 39 36 33 26 20 16 13 13 14 14 15 18 19 18 18 19 19 17 16 13
108 106 106 105 104 104 104 105 106 107 107 106 103 99 96 93 90 87 83 80 75 69 62 56 51 47 42 39 38 38 37 38 41 43 42 41 42 40 39 38 39 41 40 38 39 45 52 57 57 53 47 42 36 27 21 20 20 19 20 20 15 10 10 9 11 16 20 24 30 32 32 34 37 37 35 34 34 33 34 33 31 31 31 29 26 24 20
113 110 108 105 104 104 105 105 107 107 107 105 102 99 96 92 87 82 77 71 65 61 56 49 44 41 38 34 34 34 32 29 30 35 36 34 31 28 27 27 29 30 29 29 29 31 34 39 45 47 48 47 40 26 13 6 3 358 353 349 346 344 347 348 347 350 359 7 14 18 22 28 35 38 40 42 39 36 37 38 36 36 36 34 32 30 28
121 118 113 109 108 109 110 108 107 105 105 104 104 102 98 90 82 76 70 62 56 53 49 42 38 36 35 31 31 32 30 25 24 27 27 22 17 14 13 14 16 19 21 20 19 17 15 14 15 18 23 32 32 16 359 345 329 311 299 299 305 308 313 317 319 326 336 346 354 4 14 21 25 29 33 34 31 29 30 31 28 26 23 19 18 19 22
132 127 123 119 117 118 119 115 109 106 107 109 107 104 97 88 80 74 66 56 49 46 44 42 39 35 30 26 25 25 24 21 20 20 18 10 4 2 1 1 1 4 8 11 11 8 3 358 355 355 355 355 352 346 339 325 284 242 233 239 251 265 277 290 306 323 331 340 358 20 33 34 30 31 31 29 30 33 36 36 31 25 19 13 11 14 16
179 169 158 147 136 130 127 115 103 102 107 109 109 110 104 83 71 68 60 44 33 28 28 29 30 29 24 20 18 17 15 12 10 7 3 356 353 352 352 351 350 350 351 355 360 2 0 355 351 348 345 340 334 330 329 326 313 197 171 172 173 128 107 93 77 61 47 37 39 52 59 50 37 31 32 34 38 43 46 43 38 32 28 23 20 20 19
209 203 189 172 159 151 141 115 90 90 93 93 100 114 115 61 51 64 58 34 19 12 8 5 8 11 10 7 5 5 3 359 356 354 350 347 346 346 345 344 344 341 338 340 345 352 356 357 355 353 349 343 335 330 331 332 338 109 112 100 84 79 79 79 79 78 71 58 54 62 68 59 45 38 40 45 49 51 52 50 45 40 35 31 27 24 20
202 195 183 175 172 168 161 145 110 90 94 99 110 128 142 30 42 65 54 28 18 12 3 354 350 354 358 0 3 4 359 353 350 348 347 345 345 342 338 337 338 335 332 332 337 343 351 358 1 1 3 5 1 0 6 10 30 98 114 108 91 77 71 71 79 86 86 75 68 71 73 66 57 52 52 54 56 59 61 58 52 44 37 33 30 27 22